Location: Newark
(50.0306°N, 2.3272°E)
Time: 14:15:58
(UTC+00:00)

Transit 2A Rocket - Pass Details

Date: 07 December 2019
Orbit: 593 x 910 km, 66.7° (Epoch: 19 January)

Event Time Altitude Azimuth Distance (km) Brightness Sun altitude
Rises 20:06:46 0° 287° (WNW) 2,871 8.9 -40.1°
Enters shadow 20:09:20 - 307° (NW) 2,171 8.0 -40.5°
Reaches altitude 10° 20:10:37 10° 321° (NW) 1,942 - -40.7°
Maximum altitude 20:12:06 12° 342° (NNW) 1,841 - -41.0°
Drops below altitude 10° 20:13:35 10° 2° (N) 1,938 - -41.2°
Sets 20:17:25 0° 36° (NE) 2,854 - -41.8°
